Location: Unspecified
(0.0000°N, 0.0000°E)
Time: 13:42:20
(UTC+00:00)

S-56A Canister/Altair - Pass Details

Date: 21 November 2019
Orbit: 633 x 2500 km, 38.9° (Epoch: 08 December)

Event Time Altitude Azimuth Distance (km) Brightness Sun altitude
Rises 13:57:11 0° 244° (WSW) 6,173 12.7 52.2°
Reaches altitude 10° 14:01:35 10° 250° (WSW) 5,153 12.6 51.3°
Maximum altitude 14:15:15 44° 316° (NW) 2,856 11.1 48.4°
Drops below altitude 10° 14:26:04 10° 25° (NNE) 4,092 11.0 46.0°
Sets 14:29:11 0° 32° (NNE) 4,838 11.2 45.3°
